Wind_Speed
47 46 47 48 48 49 48 48 48 47 48 48 48 48 48 49 50 51 51 51 52 53 54 54 55 55 55 55 55 55 55 55 55 54 54 54 53 54
46 47 47 48 48 48 48 48 48 48 48 48 48 48 48 48 48 49 49 50 51 51 52 52 53 53 53 54 54 54 54 54 54 54 53 53 54 54
45 45 46 46 47 47 48 47 47 46 47 47 47 47 47 48 48 48 49 49 50 50 50 50 50 50 51 52 53 53 53 54 54 53 52 52 53 53
43 44 45 45 44 44 45 45 45 45 46 46 46 47 47 47 47 47 48 49 49 49 50 50 50 50 51 51 51 52 52 52 52 53 52 52 51 51
42 42 42 42 43 43 44 44 44 44 45 46 46 46 46 46 46 47 47 48 48 49 49 49 50 50 50 50 50 50 50 50 50 50 51 51 51 51
41 41 41 41 42 42 43 43 43 44 45 46 46 46 46 47 47 47 47 48 47 48 48 49 49 48 48 48 48 48 48 48 49 49 50 51 51 50
41 41 41 40 40 41 42 43 44 45 45 46 45 45 46 46 47 47 48 47 47 47 47 48 48 48 48 47 47 48 48 48 48 49 50 51 50 50
40 41 41 41 41 42 42 43 44 45 46 45 45 45 45 46 47 47 48 47 46 46 46 47 47 47 47 47 47 47 47 48 48 48 48 49 49 49
41 41 42 42 41 42 42 43 44 44 45 45 45 45 46 47 47 46 47 46 46 46 46 45 45 45 45 46 46 46 47 47 48 47 47 47 47 47
41 42 43 43 43 43 43 43 43 44 45 45 45 45 46 46 46 45 45 45 45 46 46 45 44 44 44 45 46 46 46 46 46 46 46 46 46 46
41 41 42 42 43 43 43 44 44 44 44 44 45 45 45 45 45 45 45 45 44 45 45 44 44 44 43 44 45 45 45 45 45 45 45 45 45 45
41 41 41 41 42 42 42 42 43 43 43 43 43 44 44 44 44 44 43 43 43 43 43 43 43 44 43 43 43 44 44 44 44 44 44 44 45 45
39 39 39 39 39 39 40 41 41 41 41 42 42 42 42 42 42 42 42 42 42 41 41 42 42 42 42 42 42 42 42 42 42 42 43 43 43 43
37 37 38 37 37 37 38 38 38 39 39 39 40 40 40 41 41 42 42 42 41 40 41 41 41 41 41 41 40 40 40 40 40 41 41 41 41 41
35 36 36 36 36 36 36 36 37 37 38 37 37 38 39 39 39 40 40 40 40 40 40 41 41 40 40 39 39 39 38 38 39 39 39 39 39 39
34 34 34 34 35 35 35 36 36 36 36 37 37 37 37 37 37 37 37 38 38 38 39 39 39 38 37 37 37 36 36 36 36 36 36 36 36 36
32 33 33 33 34 34 34 34 34 35 35 36 36 35 35 34 35 35 36 36 36 36 36 37 36 36 35 35 34 34 34 34 33 33 33 32 31 31
32 32 32 32 32 33 32 33 33 34 34 34 34 33 33 33 33 34 35 35 35 35 34 34 34 34 33 32 32 31 31 30 30 30 30 29 28 28
31 31 31 31 32 32 32 31 31 32 32 32 32 32 31 32 32 32 32 32 33 32 32 31 31 30 30 30 29 28 27 27 27 26 26 26 26 25
29 29 30 30 31 31 30 30 30 31 30 30 30 31 31 31 31 30 30 30 29 29 28 28 27 27 28 27 26 24 24 24 24 23 23 23 23 23
29 29 29 29 29 29 29 29 28 28 29 29 29 30 30 29 28 28 27 27 26 26 26 26 25 25 25 24 23 22 22 22 22 21 20 21 21 20
28 28 28 27 27 27 27 27 27 27 28 28 28 28 28 27 26 26 25 25 24 24 24 24 24 23 22 21 20 19 19 20 20 19 19 20 20 19
27 27 26 26 26 26 25 25 25 26 26 26 26 26 26 25 25 25 25 24 23 23 23 23 22 20 19 19 18 18 18 18 18 18 18 18 17 17
Wind_Direction
274 275 275 275 275 275 274 274 275 276 276 275 277 278 278 278 278 277 276 275 274 275 276 276 276 275 275 275 275 275 275 274 273 272 270 269 268 268
275 274 274 274 275 275 276 275 275 276 276 276 277 279 278 279 279 280 278 277 276 277 277 277 277 277 276 276 276 275 275 273 272 272 271 270 269 269
276 275 274 274 275 276 275 274 274 276 277 278 278 279 279 280 280 281 280 278 278 278 278 277 277 278 277 277 277 276 275 273 272 272 272 271 270 269
274 274 275 275 275 276 275 274 275 277 279 279 278 279 279 280 281 281 281 279 279 279 279 279 279 279 279 278 277 276 275 273 272 271 271 271 270 270
275 275 276 276 276 276 276 276 276 278 279 279 279 280 280 281 281 281 281 281 281 281 280 280 280 280 279 279 278 276 275 274 272 272 271 271 271 270
276 275 276 277 277 277 277 277 277 279 280 280 281 281 281 282 282 281 282 283 282 282 281 281 281 280 279 279 277 277 276 274 273 272 272 271 271 270
275 275 276 278 278 279 279 278 277 279 281 282 282 282 282 282 283 282 282 281 281 282 281 281 280 280 280 279 278 277 277 275 274 272 272 272 271 270
275 275 276 278 278 279 279 279 278 280 280 281 283 284 283 282 283 283 282 281 281 281 281 281 281 280 280 278 277 277 277 276 275 274 273 272 272 270
275 275 277 278 279 280 279 280 280 281 281 282 283 284 283 283 283 283 283 283 282 282 281 281 281 280 279 278 277 277 278 277 277 275 274 274 273 271
275 275 276 278 279 280 281 282 283 283 283 284 285 284 283 283 284 284 283 283 283 283 282 281 280 279 279 279 279 279 279 279 277 276 276 275 274 273
275 276 276 278 280 281 282 283 284 284 284 284 285 284 284 285 286 284 283 283 282 282 281 280 279 279 279 279 279 279 279 279 278 277 276 276 276 274
275 276 278 280 281 283 283 284 285 285 284 285 285 286 286 286 286 285 284 283 283 283 281 281 280 279 278 279 279 278 279 279 279 278 277 277 277 275
276 277 279 281 282 283 284 285 286 286 286 286 286 286 286 286 286 285 286 286 286 285 284 283 282 282 281 280 279 280 281 281 280 280 279 278 278 277
277 278 280 281 282 283 285 286 287 287 288 288 288 287 287 286 285 286 287 287 287 286 285 285 285 284 282 281 281 281 282 282 282 281 281 280 279 277
278 279 281 282 283 284 286 287 288 288 288 288 288 288 289 289 287 286 287 288 288 287 287 288 287 286 285 284 283 282 282 282 283 283 282 281 279 277
279 279 281 284 285 285 286 286 287 288 288 289 290 290 291 291 289 287 287 288 288 288 289 289 287 287 287 286 286 285 285 284 285 284 284 283 281 279
280 280 281 282 284 286 286 287 287 289 290 290 291 292 293 292 290 289 289 288 288 288 289 288 287 287 289 288 287 286 285 285 285 285 284 284 283 281
281 282 283 283 285 286 287 287 288 290 291 292 293 293 293 293 293 292 292 291 289 289 289 288 288 288 288 288 288 287 286 286 285 286 286 285 284 284
281 283 284 284 286 286 287 289 291 292 293 294 293 293 293 294 295 295 294 293 291 291 291 290 289 289 289 288 288 287 288 288 287 287 288 286 286 285
281 283 284 286 288 289 290 291 292 294 295 295 294 294 294 295 296 297 297 296 294 293 293 293 292 292 292 291 288 287 287 289 289 290 290 290 289 287
282 284 287 289 290 291 292 293 294 295 296 297 296 296 296 296 297 298 299 298 297 295 295 295 294 294 293 293 292 289 287 289 290 291 290 290 289 286
283 284 286 288 290 291 293 294 295 296 297 298 298 298 298 298 297 298 299 299 299 298 297 296 295 295 294 294 294 292 290 289 290 290 291 290 288 283
283 284 285 287 289 291 293 295 296 298 299 300 300 300 299 298 297 298 299 300 299 300 300 299 297 295 296 296 296 296 295 293 292 292 292 291 287 284
Height
5640 5639 5639 5638 5637 5636 5636 5636 5637 5637 5638 5637 5636 5634 5632 5631 5630 5629 5627 5626 5625 5625 5624 5623 5622 5621 5619 5619 5618 5617 5616 5616 5615 5614 5614 5614 5614 5615
5628 5628 5627 5626 5625 5624 5623 5624 5623 5624 5625 5625 5623 5622 5620 5618 5616 5615 5614 5612 5611 5610 5609 5608 5606 5605 5604 5603 5601 5600 5600 5599 5599 5599 5598 5598 5599 5599
5617 5616 5615 5614 5613 5612 5612 5612 5611 5611 5612 5612 5611 5609 5607 5606 5604 5602 5600 5599 5597 5596 5595 5593 5592 5590 5588 5587 5585 5584 5584 5583 5583 5583 5582 5583 5583 5584
5605 5604 5603 5602 5602 5601 5600 5600 5600 5599 5599 5599 5599 5597 5595 5593 5592 5590 5587 5585 5584 5582 5581 5579 5577 5576 5574 5572 5570 5569 5568 5567 5567 5567 5568 5568 5568 5568
5594 5593 5592 5591 5590 5590 5589 5588 5588 5588 5587 5587 5586 5584 5582 5581 5579 5577 5574 5572 5570 5569 5567 5565 5563 5561 5559 5557 5555 5554 5553 5553 5553 5552 5552 5552 5552 5553
5583 5582 5581 5580 5579 5578 5578 5577 5577 5576 5575 5574 5573 5571 5570 5568 5566 5564 5562 5560 5557 5555 5553 5551 5549 5547 5545 5543 5542 5540 5539 5538 5537 5537 5537 5537 5537 5537
5573 5572 5571 5570 5569 5568 5567 5567 5566 5565 5563 5562 5561 5559 5557 5555 5554 5551 5549 5547 5545 5542 5540 5538 5536 5534 5531 5529 5528 5526 5525 5524 5523 5522 5522 5521 5521 5521
5562 5561 5560 5560 5559 5558 5557 5556 5555 5553 5551 5550 5548 5547 5545 5542 5540 5538 5536 5534 5533 5531 5528 5525 5522 5521 5518 5517 5515 5513 5511 5510 5509 5508 5507 5506 5506 5506
5552 5551 5550 5549 5548 5547 5546 5544 5543 5541 5540 5538 5536 5534 5532 5530 5528 5525 5522 5520 5518 5516 5514 5513 5510 5508 5506 5503 5501 5500 5498 5496 5495 5494 5493 5492 5491 5491
5541 5540 5539 5538 5537 5536 5534 5533 5531 5529 5528 5526 5524 5522 5519 5516 5514 5512 5510 5508 5505 5502 5500 5500 5498 5496 5494 5491 5488 5486 5484 5483 5481 5480 5479 5478 5477 5477
5530 5529 5528 5528 5526 5524 5523 5521 5520 5518 5515 5513 5511 5508 5506 5504 5501 5499 5497 5495 5493 5491 5487 5486 5485 5483 5482 5480 5476 5474 5471 5470 5468 5467 5466 5465 5464 5463
5519 5519 5518 5516 5515 5512 5511 5509 5508 5506 5503 5501 5498 5496 5494 5491 5488 5486 5484 5482 5479 5478 5475 5473 5471 5469 5470 5469 5465 5462 5459 5457 5455 5454 5453 5451 5450 5449
5508 5508 5506 5505 5503 5502 5500 5498 5496 5494 5491 5489 5486 5484 5482 5479 5476 5474 5471 5469 5467 5464 5462 5460 5459 5456 5455 5455 5453 5450 5447 5445 5443 5442 5440 5439 5437 5436
5498 5497 5496 5494 5493 5491 5489 5487 5485 5482 5480 5478 5475 5473 5470 5468 5465 5462 5460 5457 5454 5452 5450 5447 5446 5444 5442 5441 5440 5439 5436 5434 5432 5430 5428 5427 5425 5423
5488 5487 5486 5484 5483 5481 5479 5477 5474 5472 5470 5467 5465 5462 5460 5457 5454 5451 5449 5446 5444 5441 5438 5436 5434 5432 5430 5428 5428 5427 5425 5423 5421 5419 5417 5415 5413 5412
5478 5477 5476 5475 5473 5471 5469 5467 5464 5462 5460 5457 5455 5452 5449 5446 5443 5441 5439 5436 5434 5431 5428 5425 5423 5421 5419 5418 5416 5415 5413 5412 5410 5408 5406 5404 5402 5401
5468 5467 5466 5465 5464 5461 5459 5457 5455 5452 5450 5447 5445 5442 5439 5436 5433 5431 5429 5426 5424 5422 5419 5416 5413 5411 5409 5408 5406 5404 5403 5401 5400 5398 5396 5395 5393 5391
5459 5458 5457 5456 5454 5452 5450 5448 5445 5443 5440 5438 5435 5433 5430 5427 5424 5422 5419 5417 5414 5412 5410 5407 5405 5402 5401 5399 5397 5395 5393 5392 5390 5389 5387 5386 5385 5383
5450 5449 5448 5447 5445 5443 5441 5439 5437 5434 5431 5429 5426 5424 5421 5419 5416 5413 5410 5408 5405 5403 5401 5398 5396 5394 5392 5391 5389 5386 5385 5384 5382 5381 5379 5378 5377 5376
5441 5440 5439 5438 5436 5434 5432 5430 5428 5426 5423 5420 5418 5415 5413 5410 5407 5405 5402 5399 5397 5395 5393 5390 5388 5386 5384 5383 5382 5380 5377 5376 5375 5374 5372 5371 5369 5369
5433 5432 5430 5429 5427 5425 5424 5422 5420 5417 5415 5412 5410 5407 5405 5402 5399 5397 5394 5392 5389 5387 5385 5383 5381 5379 5377 5375 5374 5373 5372 5369 5368 5367 5366 5364 5363 5362
5424 5423 5422 5420 5419 5418 5416 5414 5412 5410 5408 5405 5402 5400 5397 5395 5392 5390 5387 5385 5383 5381 5379 5377 5374 5372 5371 5369 5368 5367 5366 5364 5362 5361 5359 5358 5357 5356
5416 5415 5414 5413 5412 5410 5408 5406 5405 5403 5400 5398 5395 5393 5390 5388 5385 5383 5381 5379 5377 5375 5373 5371 5369 5367 5365 5364 5363 5362 5360 5359 5358 5356 5355 5353 5351 5350